Terminal Aerodrome Forecast
Issued by NWS Mt. Holly, NJ

Home | Current Version | Previous Version | Text Only | Print | Product List | Glossary On
Versions: 1 2 3 4 5 6 7 8 9 10 11 12 13 14 15 16 17 18 19 20 21 22 23 24 25 26 27 28 29 30 31 32 33 34 35 36 37 38 39 40 41 42 43 44 45 46 47 48 49 50
000
FTAK31 PANC 210540
TAFABE
TAF
PABE 210540Z 2106/2206 17015KT 3SM -SHSN BR BKN027 OVC035
      TEMPO 2106/2110 17015G25KT 1SM -SHSN BLSN BKN015
     FM211200 16010KT P6SM -SHSN SCT025 BKN035
     FM212200 17008KT P6SM VCSH SCT025 BKN035=

USA.gov is the U.S. government's official web portal to all federal, state and local government web resources and services.